This is the latest recevied weather packets stored in our database for station/object KA7EII-13. If no packets are shown the sender has not sent any weather packets the latest 10 day(s).
| Time | Temp. | Humidity | Pressure | Rain* | Wind** | Luminosity | Snow |
|---|---|---|---|---|---|---|---|
| 1777920398 | 21.67° C | 35% | 1098.2 hPa | 0 mm | - | 780 W/m² | - |
| 1777920093 | 21.67° C | 31% | 1098.3 hPa | 0 mm | - | 747 W/m² | - |
| 1777919790 | 21.67° C | 32% | 1098.5 hPa | 0 mm | - | 713 W/m² | - |
| 1777919488 | 21.67° C | 34% | 1098.6 hPa | 0 mm | - | 713 W/m² | - |
| 1777919185 | 21.67° C | 36% | 1098.5 hPa | 0 mm | - | 707 W/m² | - |
| 1777918883 | 21.67° C | 33% | 1098.2 hPa | 0 mm | - | 684 W/m² | - |
| 1777918580 | 21.11° C | 32% | 1098.5 hPa | 0 mm | - | 669 W/m² | - |
| 1777918277 | 21.11° C | 31% | 1098.4 hPa | 0 mm | - | 655 W/m² | - |
| 1777917977 | 20.56° C | 33% | 1098.8 hPa | 0 mm | - | 721 W/m² | - |
| 1777917675 | 21.11° C | 34% | 1098.3 hPa | 0 mm | - | 743 W/m² | - |
| 1777917372 | 20.56° C | 35% | 1098.6 hPa | 0 mm | - | 727 W/m² | - |
| 1777917068 | 20.56° C | 35% | 1098.6 hPa | 0 mm | - | 764 W/m² | - |
| 1777916767 | 20.56° C | 39% | 1099 hPa | 0 mm | - | 758 W/m² | - |
| 1777916463 | 20.56° C | 36% | 1098.8 hPa | 0 mm | - | 780 W/m² | - |
| 1777916159 | 20° C | 37% | 1098.9 hPa | 0 mm | - | 797 W/m² | - |
| 1777915857 | 20.56° C | 35% | 1099 hPa | 0 mm | - | 782 W/m² | - |
| 1777915553 | 20° C | 36% | 1098.8 hPa | 0 mm | - | 809 W/m² | - |
| 1777915250 | 20° C | 36% | 1098.9 hPa | 0 mm | - | 829 W/m² | - |
| 1777914947 | 19.44° C | 39% | 1099 hPa | 0 mm | - | 808 W/m² | - |
| 1777914644 | 20° C | 38% | 1098.8 hPa | 0 mm | - | 741 W/m² | - |
| 1777914339 | 20° C | 33% | 1098.8 hPa | 0 mm | - | 750 W/m² | - |
| 1777914038 | 18.89° C | 34% | 1099 hPa | 0 mm | - | 757 W/m² | - |
| 1777913733 | 19.44° C | 34% | 1099 hPa | 0 mm | - | 762 W/m² | - |
| 1777913430 | 19.44° C | 35% | 1099.1 hPa | 0 mm | - | 724 W/m² | - |
| 1777913126 | 18.89° C | 35% | 1099.1 hPa | 0 mm | - | 687 W/m² | - |
* Rain latest hour (hover to see other rain measurements)
** Current wind speed in m/s (hover to see current wind gust speed)